User: anonymous   Login
Location: St. Louis
(38.6270°N, 90.1994°W)
Time: 13:35:30
(UTC-06:00)
Language:

DELFI C3 - Orbit

View from above orbital plane
View from above orbital plane
View from above satellite
View from above satellite

Ground track
Ground track

The orbit data is extracted from the following two-line orbital elements,

1 32789U 08021G   22019.50459797  .00009251  00000-0  56474-3 0  9996
2 32789  97.3555  51.4588 0012729 115.9234 244.3309 15.10448894749427
Epoch (UTC): 19 January 2022 12:06:37
Eccentricity: 0.0012729
inclination: 97.3555°
perigee height: 526 km
apogee height: 543 km
right ascension of ascending node: 51.4588°
argument of perigee: 115.9234°
revolutions per day: 15.10448894
mean anomaly at epoch: 244.3309°
orbit number at epoch: 74942

The dashed part of the orbit path shows where the satellite is in the earth's shadow,  

DLR